Location: Ferques
(50.8300°N, 1.7599°E)
Time: 04:55:34
(UTC+00:00)

BlueWalker 3 - Pass Details

Date: 19 May 2025
Orbit: 460 x 472 km, 53.2° (Epoch: 13 June)

Event Time Altitude Azimuth Distance (km) Brightness Sun altitude
Rises 22:37:52 0° 284° (WNW) 2,498 5.9 -17.5°
Reaches altitude 10° 22:40:44 10° 260° (W) 1,621 4.6 -17.6°
Enters shadow 22:42:20 14° 234° (SW) 1,378 4.0 -17.7°
